Powrót do katalogu

COSMOS 2499 DEB

AktywnyPO
NORAD 56576·DEBRIS·🇷🇺 Russia

Wystrzelony May 23, 2014 z Plesetsk Cosmodrome

Loading…

Następne Przeloty (najbliższe 24 godziny)

TLE

ŚwieżeSource: Space-Track

Epoka: Sep 13, 2026, 12:58 UTC

1 56576U 14028BK  26256.54067625  .00004685  00000-0  16459-1 0  9999
2 56576  82.4102 185.8913 0199227 112.9964 249.2293 12.89656210171195

Śledź COSMOS 2499 DEB w czasie rzeczywistym z AllMySat

Download on the App Store